Hourly Data Report for November 29, 2003

TORONTO CITY
ONTARIO

43°40'00.000" N
79°24'00.000" W
112.50 m
6158355
71508
XTO

Download Data

Hourly Data (November 2003)
Hourly Data Report for November 29, 2003
TIME
LST
Temp Definition
°C
Dew Point Definition
°C
Rel Hum Definition
%
Precip. Amount Definition
mm

Wind Dir Definition
10's deg

Wind Spd Definition
km/h
Visibility Definition
km
Stn Press Definition
kPa
Hmdx Definition


Wind Chill Definition


Weather Definition


00:00 1.8 0.7 92   LegendMM LegendMM LegendMM 97.94     LegendNANA
01:00 1.2 0.4 94   LegendMM LegendMM LegendMM 97.93     LegendNANA
02:00 0.9 -0.5 90   LegendMM LegendMM LegendMM 97.95     LegendNANA
03:00 0.9 -0.5 90   LegendMM LegendMM LegendMM 98.01     LegendNANA
04:00 0.6 -0.2 94   LegendMM LegendMM LegendMM 98.07     LegendNANA
05:00 0.6 -0.6 92   LegendMM LegendMM LegendMM 98.18     LegendNANA
06:00 0.6 -1.1 88   LegendMM LegendMM LegendMM 98.30     LegendNANA
07:00 0.3 -2.2 83   LegendMM LegendMM LegendMM 98.43     LegendNANA
08:00 -0.1 -2.7 83   LegendMM LegendMM LegendMM 98.56     LegendNANA
09:00 -0.4 -3.7 78   LegendMM LegendMM LegendMM 98.71     LegendNANA
10:00 -0.1 -4.1 74   LegendMM LegendMM LegendMM 98.90     LegendNANA
11:00 0.5 -4.2 71   LegendMM LegendMM LegendMM 99.06     LegendNANA
12:00 1.6 -4.6 63   LegendMM LegendMM LegendMM 99.14     LegendNANA
13:00 3.2 -4.1 59   LegendMM LegendMM LegendMM 99.21     LegendNANA
14:00 3.4 -3.5 61   LegendMM LegendMM LegendMM 99.32     LegendNANA
15:00 3.1 -4.0 60   LegendMM LegendMM LegendMM 99.41     LegendNANA
16:00 2.7 -3.3 65   LegendMM LegendMM LegendMM 99.43     LegendNANA
17:00 2.2 -3.8 64   LegendMM LegendMM LegendMM 99.49     LegendNANA
18:00 2.2 -2.6 71   LegendMM LegendMM LegendMM 99.47     LegendNANA
19:00 2.5 -2.1 72   LegendMM LegendMM LegendMM 99.41     LegendNANA
20:00 2.9 -2.1 70   LegendMM LegendMM LegendMM 99.40     LegendNANA
21:00 2.8 -2.0 71   LegendMM LegendMM LegendMM 99.37     LegendNANA
22:00 2.8 -2.8 67   LegendMM LegendMM LegendMM 99.32     LegendNANA
23:00 2.8 -1.6 73   LegendMM LegendMM LegendMM 99.31     LegendNANA

Notes on Data Quality.

Legend

  • E = Estimated
  • M = Missing
  • NA = Not Available*
  • [empty] = Indicates an unobserved value
Date modified: